Time,TemperatureF,DewpointF,PressureIn,WindDirection,WindDirectionDegrees,WindSpeedMPH,WindSpeedGustMPH,Humidity,HourlyPrecipIn,Conditions,Clouds,dailyrainin,SoftwareType,DateUTC
2013-01-24 00:02:00,7.0,0.0,29.99,ENE,75,22.0,29.0,73,0.00,,,0.00,,2013-01-24 07:02:00,
2013-01-24 00:12:00,7.0,0.0,29.99,ENE,75,22.0,29.0,73,0.00,,,0.00,,2013-01-24 07:12:00,
2013-01-24 00:22:00,7.0,0.0,29.99,ENE,75,22.0,29.0,73,0.00,,,0.00,,2013-01-24 07:22:00,
2013-01-24 00:33:00,7.0,0.0,29.99,East,82,26.0,32.0,73,0.00,,,0.00,,2013-01-24 07:33:00,
2013-01-24 00:42:00,7.0,0.0,29.99,East,82,26.0,32.0,73,0.00,,,0.00,,2013-01-24 07:42:00,
2013-01-24 00:53:00,8.0,1.0,29.93,ENE,77,21.0,30.0,73,0.00,,,0.00,,2013-01-24 07:53:00,
2013-01-24 01:02:00,8.0,1.0,29.94,ENE,77,20.0,26.0,73,0.00,,,0.00,,2013-01-24 08:02:00,
2013-01-24 01:12:00,8.0,1.0,29.94,ENE,77,20.0,26.0,73,0.00,,,0.00,,2013-01-24 08:12:00,
2013-01-24 01:22:00,8.0,1.0,29.94,ENE,74,21.0,26.0,74,0.00,,,0.00,,2013-01-24 08:22:00,
2013-01-24 01:33:00,8.0,1.0,29.94,ENE,74,21.0,26.0,73,0.00,,,0.00,,2013-01-24 08:33:00,
2013-01-24 01:42:00,8.0,1.0,29.94,ENE,74,21.0,26.0,73,0.00,,,0.00,,2013-01-24 08:42:00,
2013-01-24 01:53:00,8.0,1.0,29.93,ENE,77,20.0,26.0,74,0.00,,,0.00,,2013-01-24 08:53:00,
2013-01-24 02:02:00,8.0,1.0,29.93,ENE,77,20.0,26.0,74,0.00,,,0.00,,2013-01-24 09:02:00,
2013-01-24 02:12:00,8.0,1.0,29.93,ENE,77,20.0,26.0,74,0.00,,,0.00,,2013-01-24 09:12:00,
2013-01-24 02:23:00,8.0,1.0,29.93,ENE,77,20.0,26.0,74,0.00,,,0.00,,2013-01-24 09:23:00,
2013-01-24 02:33:00,8.0,1.0,29.93,ENE,77,20.0,26.0,74,0.00,,,0.00,,2013-01-24 09:33:00,
2013-01-24 02:53:00,9.0,2.0,29.94,ENE,74,20.0,29.0,74,0.00,,,0.00,,2013-01-24 09:53:00,
2013-01-24 03:03:00,9.0,2.0,29.91,ENE,76,20.0,26.0,74,0.00,,,0.00,,2013-01-24 10:03:00,
2013-01-24 03:12:00,9.0,2.0,29.91,ENE,76,20.0,26.0,74,0.00,,,0.00,,2013-01-24 10:12:00,
2013-01-24 03:22:00,10.0,3.0,29.89,ENE,75,17.0,29.0,74,0.00,,,0.00,,2013-01-24 10:22:00,
2013-01-24 03:33:00,10.0,3.0,29.90,East,84,21.0,25.0,74,0.00,,,0.00,,2013-01-24 10:33:00,
2013-01-24 03:43:00,10.0,3.0,29.90,East,84,21.0,25.0,74,0.00,,,0.00,,2013-01-24 10:43:00,
2013-01-24 03:53:00,10.0,4.0,29.88,ENE,72,21.0,25.0,75,0.00,,,0.00,,2013-01-24 10:53:00,
2013-01-24 04:02:00,10.0,4.0,29.87,ENE,73,20.0,25.0,75,0.00,,,0.00,,2013-01-24 11:02:00,
2013-01-24 04:12:00,10.0,4.0,29.87,ENE,73,20.0,25.0,75,0.00,,,0.00,,2013-01-24 11:12:00,
2013-01-24 04:23:00,10.0,4.0,29.87,ENE,73,20.0,25.0,75,0.00,,,0.00,,2013-01-24 11:23:00,
2013-01-24 04:33:00,11.0,5.0,29.87,ENE,70,19.0,24.0,75,0.00,,,0.00,,2013-01-24 11:33:00,
2013-01-24 04:43:00,11.0,5.0,29.87,ENE,70,19.0,24.0,75,0.00,,,0.00,,2013-01-24 11:43:00,
2013-01-24 04:53:00,11.0,5.0,29.87,ENE,70,19.0,24.0,75,0.00,,,0.00,,2013-01-24 11:53:00,
2013-01-24 05:03:00,12.0,6.0,29.83,ENE,68,17.0,22.0,75,0.00,,,0.00,,2013-01-24 12:03:00,
2013-01-24 05:12:00,12.0,6.0,29.83,ENE,68,17.0,22.0,75,0.00,,,0.00,,2013-01-24 12:12:00,
2013-01-24 05:23:00,12.0,6.0,29.83,ENE,73,15.0,21.0,76,0.00,,,0.00,,2013-01-24 12:23:00,
2013-01-24 05:33:00,12.0,6.0,29.83,ENE,73,15.0,21.0,76,0.00,,,0.00,,2013-01-24 12:33:00,
2013-01-24 05:42:00,12.0,6.0,29.83,ENE,73,15.0,21.0,76,0.00,,,0.00,,2013-01-24 12:42:00,
2013-01-24 05:53:00,13.0,7.0,29.83,ENE,70,13.0,18.0,76,0.00,,,0.00,,2013-01-24 12:53:00,
2013-01-24 06:03:00,13.0,7.0,29.82,ENE,66,13.0,18.0,77,0.00,,,0.00,,2013-01-24 13:03:00,
2013-01-24 06:13:00,13.0,7.0,29.82,ENE,66,13.0,18.0,77,0.00,,,0.00,,2013-01-24 13:13:00,
2013-01-24 06:23:00,14.0,8.0,29.81,ENE,69,14.0,18.0,77,0.00,,,0.00,,2013-01-24 13:23:00,
2013-01-24 06:33:00,14.0,8.0,29.81,ENE,69,14.0,18.0,77,0.00,,,0.00,,2013-01-24 13:33:00,
2013-01-24 06:42:00,14.0,8.0,29.81,ENE,69,14.0,18.0,77,0.00,,,0.00,,2013-01-24 13:42:00,
2013-01-24 06:53:00,14.0,8.0,29.81,ENE,75,12.0,16.0,77,0.00,,,0.00,,2013-01-24 13:53:00,
2013-01-24 07:02:00,14.0,8.0,29.80,ENE,68,11.0,14.0,77,0.00,,,0.00,,2013-01-24 14:02:00,
2013-01-24 07:12:00,14.0,8.0,29.80,ENE,68,11.0,14.0,77,0.00,,,0.00,,2013-01-24 14:12:00,
2013-01-24 07:23:00,15.0,9.0,29.80,ENE,71,10.0,14.0,78,0.00,,,0.00,,2013-01-24 14:23:00,
2013-01-24 07:33:00,15.0,9.0,29.80,East,79,10.0,13.0,78,0.00,,,0.00,,2013-01-24 14:33:00,
2013-01-24 07:43:00,15.0,9.0,29.80,East,79,10.0,13.0,78,0.00,,,0.00,,2013-01-24 14:43:00,
2013-01-24 07:54:00,15.0,9.0,29.80,East,79,10.0,13.0,78,0.00,,,0.00,,2013-01-24 14:54:00,
2013-01-24 08:03:00,15.0,9.0,29.80,East,79,10.0,13.0,78,0.00,,,0.00,,2013-01-24 15:03:00,
2013-01-24 08:12:00,15.0,9.0,29.80,East,79,10.0,13.0,78,0.00,,,0.00,,2013-01-24 15:12:00,
2013-01-24 08:23:00,16.0,11.0,29.79,East,81,12.0,15.0,79,0.00,,,0.00,,2013-01-24 15:23:00,
2013-01-24 08:33:00,16.0,11.0,29.79,East,81,12.0,15.0,79,0.00,,,0.00,,2013-01-24 15:33:00,
2013-01-24 08:43:00,16.0,11.0,29.79,East,81,12.0,15.0,79,0.00,,,0.00,,2013-01-24 15:43:00,
2013-01-24 08:53:00,16.0,11.0,29.79,East,81,12.0,15.0,79,0.00,,,0.00,,2013-01-24 15:53:00,
2013-01-24 09:03:00,16.0,11.0,29.77,ENE,66,10.0,12.0,79,0.00,,,0.00,,2013-01-24 16:03:00,
2013-01-24 09:12:00,16.0,11.0,29.77,ENE,66,10.0,12.0,79,0.00,,,0.00,,2013-01-24 16:12:00,
2013-01-24 09:23:00,17.0,12.0,29.80,ENE,71,6.0,12.0,79,0.00,,,0.00,,2013-01-24 16:23:00,
2013-01-24 09:33:00,17.0,11.0,29.80,ENE,75,6.0,10.0,78,0.00,,,0.00,,2013-01-24 16:33:00,
2013-01-24 09:42:00,17.0,11.0,29.80,ENE,75,6.0,10.0,78,0.00,,,0.00,,2013-01-24 16:42:00,
2013-01-24 10:02:00,17.0,11.0,29.80,ESE,106,5.0,7.0,78,0.00,,,0.00,,2013-01-24 17:02:00,
2013-01-24 10:12:00,17.0,11.0,29.80,ESE,106,5.0,7.0,78,0.00,,,0.00,,2013-01-24 17:12:00,
2013-01-24 10:22:00,18.0,12.0,29.80,ESE,102,4.0,6.0,77,0.00,,,0.00,,2013-01-24 17:22:00,
2013-01-24 10:32:00,18.0,12.0,29.80,ESE,102,4.0,6.0,77,0.00,,,0.00,,2013-01-24 17:32:00,
2013-01-24 10:43:00,18.0,12.0,29.80,ESE,102,4.0,6.0,77,0.00,,,0.00,,2013-01-24 17:43:00,
2013-01-24 10:52:00,19.0,12.0,29.82,ESE,102,2.0,3.0,75,0.00,,,0.00,,2013-01-24 17:52:00,
2013-01-24 11:02:00,19.0,12.0,29.82,ESE,103,1.0,3.0,74,0.00,,,0.00,,2013-01-24 18:02:00,
2013-01-24 11:12:00,19.0,12.0,29.82,ESE,103,1.0,3.0,74,0.00,,,0.00,,2013-01-24 18:12:00,
2013-01-24 11:22:00,19.0,12.0,29.82,ESE,103,1.0,3.0,74,0.00,,,0.00,,2013-01-24 18:22:00,
2013-01-24 11:32:00,19.0,12.0,29.82,ESE,103,1.0,3.0,74,0.00,,,0.00,,2013-01-24 18:32:00,
2013-01-24 11:42:00,19.0,12.0,29.82,ESE,103,1.0,3.0,74,0.00,,,0.00,,2013-01-24 18:42:00,
2013-01-24 11:53:00,23.0,15.0,29.82,SW,228,6.0,8.0,71,0.00,,,0.00,,2013-01-24 18:53:00,
2013-01-24 12:02:00,23.0,15.0,29.82,SSW,194,6.0,10.0,71,0.00,,,0.00,,2013-01-24 19:02:00,
2013-01-24 12:12:00,23.0,15.0,29.82,SSW,194,6.0,10.0,71,0.00,,,0.00,,2013-01-24 19:12:00,
2013-01-24 12:22:00,23.0,15.0,29.82,SSW,194,6.0,10.0,71,0.00,,,0.00,,2013-01-24 19:22:00,
2013-01-24 12:32:00,23.0,15.0,29.82,SSW,194,6.0,10.0,71,0.00,,,0.00,,2013-01-24 19:32:00,
2013-01-24 12:42:00,24.0,15.0,29.82,WSW,247,5.0,13.0,69,0.00,,,0.00,,2013-01-24 19:42:00,
2013-01-24 12:53:00,24.0,15.0,29.82,WSW,247,5.0,13.0,69,0.00,,,0.00,,2013-01-24 19:53:00,
2013-01-24 13:02:00,25.0,17.0,29.82,WSW,239,6.0,10.0,70,0.00,,,0.00,,2013-01-24 20:02:00,
2013-01-24 13:11:00,25.0,17.0,29.82,WSW,239,6.0,10.0,70,0.00,,,0.00,,2013-01-24 20:11:00,
2013-01-24 13:22:00,26.0,17.0,29.82,West,259,8.0,12.0,69,0.00,,,0.00,,2013-01-24 20:22:00,
2013-01-24 13:32:00,26.0,17.0,29.82,West,259,8.0,12.0,69,0.00,,,0.00,,2013-01-24 20:32:00,
2013-01-24 13:42:00,26.0,17.0,29.82,West,259,8.0,12.0,69,0.00,,,0.00,,2013-01-24 20:42:00,
2013-01-24 13:52:00,28.0,18.0,29.82,WNW,284,7.0,12.0,67,0.00,,,0.00,,2013-01-24 20:52:00,
2013-01-24 14:02:00,28.0,18.0,29.82,WNW,284,7.0,12.0,67,0.00,,,0.00,,2013-01-24 21:02:00,
2013-01-24 14:12:00,28.0,18.0,29.82,WNW,284,7.0,12.0,67,0.00,,,0.00,,2013-01-24 21:12:00,
2013-01-24 14:22:00,28.0,18.0,29.82,WNW,284,7.0,12.0,67,0.00,,,0.00,,2013-01-24 21:22:00,
2013-01-24 14:33:00,30.0,21.0,29.85,West,269,14.0,22.0,68,0.00,,,0.00,,2013-01-24 21:33:00,
2013-01-24 14:43:00,30.0,21.0,29.85,West,269,14.0,22.0,68,0.00,,,0.00,,2013-01-24 21:43:00,
2013-01-24 14:53:00,30.0,21.0,29.85,West,270,12.0,20.0,68,0.00,,,0.00,,2013-01-24 21:53:00,
2013-01-24 15:03:00,30.0,21.0,29.85,West,277,14.0,20.0,69,0.00,,,0.00,,2013-01-24 22:03:00,
2013-01-24 15:12:00,30.0,21.0,29.85,West,277,14.0,20.0,69,0.00,,,0.00,,2013-01-24 22:12:00,
2013-01-24 15:22:00,30.0,21.0,29.88,West,268,12.0,22.0,69,0.00,,,0.00,,2013-01-24 22:22:00,
2013-01-24 15:32:00,30.0,21.0,29.89,West,262,10.0,15.0,69,0.00,,,0.00,,2013-01-24 22:32:00,
2013-01-24 15:42:00,30.0,21.0,29.89,West,262,10.0,15.0,69,0.00,,,0.00,,2013-01-24 22:42:00,
2013-01-24 15:53:00,30.0,21.0,29.89,West,261,9.0,15.0,70,0.00,,,0.00,,2013-01-24 22:53:00,
2013-01-24 16:02:00,29.0,20.0,29.89,WSW,253,7.0,14.0,70,0.00,,,0.00,,2013-01-24 23:02:00,
2013-01-24 16:12:00,29.0,20.0,29.89,WSW,253,7.0,14.0,70,0.00,,,0.00,,2013-01-24 23:12:00,
2013-01-24 16:22:00,29.0,21.0,29.89,SW,223,8.0,12.0,72,0.00,,,0.00,,2013-01-24 23:22:00,
2013-01-24 16:32:00,29.0,21.0,29.89,WSW,243,3.0,12.0,73,0.00,,,0.00,,2013-01-24 23:32:00,
2013-01-24 16:42:00,29.0,21.0,29.89,WSW,243,3.0,12.0,73,0.00,,,0.00,,2013-01-24 23:42:00,
2013-01-24 16:52:00,29.0,21.0,29.91,WSW,251,6.0,9.0,73,0.00,,,0.00,,2013-01-24 23:52:00,
2013-01-24 17:02:00,28.0,20.0,29.91,WSW,250,3.0,8.0,73,0.00,,,0.00,,2013-01-25 00:02:00,
2013-01-24 17:12:00,28.0,20.0,29.91,WSW,250,3.0,8.0,73,0.00,,,0.00,,2013-01-25 00:12:00,
2013-01-24 17:22:00,28.0,21.0,29.91,WSW,252,3.0,5.0,74,0.00,,,0.00,,2013-01-25 00:22:00,
2013-01-24 17:32:00,28.0,21.0,29.91,WSW,252,3.0,5.0,74,0.00,,,0.00,,2013-01-25 00:32:00,
2013-01-24 17:42:00,28.0,21.0,29.91,WSW,252,3.0,5.0,74,0.00,,,0.00,,2013-01-25 00:42:00,
2013-01-24 17:52:00,27.0,20.0,29.93,WNW,284,3.0,13.0,76,0.00,,,0.00,,2013-01-25 00:52:00,
2013-01-24 18:01:00,26.0,20.0,29.93,WSW,242,3.0,6.0,77,0.00,,,0.00,,2013-01-25 01:01:00,
2013-01-24 18:12:00,26.0,20.0,29.93,WSW,242,3.0,6.0,77,0.00,,,0.00,,2013-01-25 01:12:00,
2013-01-24 18:22:00,26.0,20.0,29.93,WSW,242,3.0,6.0,77,0.00,,,0.00,,2013-01-25 01:22:00,
2013-01-24 18:32:00,26.0,20.0,29.93,WSW,242,3.0,6.0,77,0.00,,,0.00,,2013-01-25 01:32:00,
2013-01-24 18:42:00,26.0,20.0,29.93,WSW,242,3.0,6.0,77,0.00,,,0.00,,2013-01-25 01:42:00,
2013-01-24 19:22:00,24.0,18.0,29.97,WSW,238,4.0,6.0,78,0.00,,,0.00,,2013-01-25 02:22:00,
2013-01-24 19:33:00,24.0,18.0,29.97,WSW,238,4.0,6.0,78,0.00,,,0.00,,2013-01-25 02:33:00,
2013-01-24 19:43:00,24.0,18.0,29.97,WSW,238,4.0,6.0,78,0.00,,,0.00,,2013-01-25 02:43:00,
2013-01-24 19:53:00,23.0,18.0,29.97,WSW,253,7.0,12.0,80,0.00,,,0.00,,2013-01-25 02:53:00,
2013-01-24 20:02:00,23.0,18.0,29.97,West,260,7.0,12.0,80,0.00,,,0.00,,2013-01-25 03:02:00,
2013-01-24 20:12:00,23.0,17.0,29.98,WNW,288,6.0,10.0,79,0.00,,,0.00,,2013-01-25 03:12:00,
2013-01-24 20:22:00,23.0,17.0,29.98,WNW,288,6.0,10.0,79,0.00,,,0.00,,2013-01-25 03:22:00,
2013-01-24 20:33:00,23.0,17.0,29.98,West,264,6.0,12.0,78,0.00,,,0.00,,2013-01-25 03:33:00,
2013-01-24 20:41:00,23.0,17.0,29.98,West,264,6.0,12.0,78,0.00,,,0.00,,2013-01-25 03:41:00,
2013-01-24 20:52:00,23.0,17.0,29.98,WSW,255,5.0,9.0,77,0.00,,,0.00,,2013-01-25 03:52:00,
2013-01-24 21:02:00,23.0,17.0,29.98,WSW,255,5.0,9.0,77,0.00,,,0.00,,2013-01-25 04:02:00,
2013-01-24 21:12:00,23.0,17.0,29.98,WSW,255,5.0,9.0,77,0.00,,,0.00,,2013-01-25 04:12:00,
2013-01-24 21:22:00,22.0,16.0,29.98,WSW,254,5.0,10.0,77,0.00,,,0.00,,2013-01-25 04:22:00,
2013-01-24 21:32:00,22.0,16.0,29.99,WSW,256,2.0,6.0,77,0.00,,,0.00,,2013-01-25 04:32:00,
2013-01-24 21:42:00,22.0,16.0,29.99,WSW,256,2.0,6.0,77,0.00,,,0.00,,2013-01-25 04:42:00,
2013-01-24 21:52:00,21.0,15.0,30.00,WSW,256,5.0,6.0,77,0.00,,,0.00,,2013-01-25 04:52:00,
2013-01-24 22:03:00,21.0,15.0,30.00,West,261,5.0,7.0,77,0.00,,,0.00,,2013-01-25 05:03:00,
2013-01-24 22:12:00,21.0,15.0,30.00,West,262,5.0,7.0,77,0.00,,,0.00,,2013-01-25 05:12:00,
2013-01-24 22:22:00,21.0,15.0,30.00,West,262,5.0,7.0,77,0.00,,,0.00,,2013-01-25 05:22:00,
2013-01-24 22:32:00,21.0,15.0,30.00,West,263,4.0,5.0,77,0.00,,,0.00,,2013-01-25 05:32:00,
2013-01-24 22:43:00,21.0,15.0,30.00,West,263,4.0,5.0,77,0.00,,,0.00,,2013-01-25 05:43:00,
2013-01-24 22:52:00,20.0,14.0,30.00,West,277,3.0,6.0,78,0.00,,,0.00,,2013-01-25 05:52:00,
2013-01-24 23:02:00,20.0,14.0,30.00,West,277,3.0,5.0,77,0.00,,,0.00,,2013-01-25 06:02:00,
2013-01-24 23:11:00,20.0,14.0,30.00,West,277,3.0,5.0,77,0.00,,,0.00,,2013-01-25 06:11:00,
2013-01-24 23:21:00,19.0,13.0,30.00,West,266,3.0,6.0,78,0.00,,,0.00,,2013-01-25 06:21:00,
2013-01-24 23:32:00,19.0,13.0,30.01,SW,234,1.0,6.0,78,0.00,,,0.00,,2013-01-25 06:32:00,
2013-01-24 23:42:00,19.0,13.0,30.01,SW,234,1.0,6.0,78,0.00,,,0.00,,2013-01-25 06:42:00,
2013-01-24 23:52:00,18.0,13.0,30.01,SW,234,2.0,3.0,79,0.00,,,0.00,,2013-01-25 06:52:00,